• Join FlightAware (Why Join?)
  • Login
  • US Flag 
03:14PM EST


 

Airport Tracker/Info


-or-


 

Live Flight TrackerFlight Track Log ✈ DLH26 ✈ 25-Aug-2013 ✈ EDDF / FRA - EDDH / HAM

Flight Track Log - Related Links

Times and Time Zones

All times are in EDT time to prevent confusion due to time zone crossing. See the DLH26 flight status page for this flight to view local times or setup timezone preferences in your user account.

Time Position Orientation Groundspeed Altitude Reporting Facility
EDT Latitude Longitude Course Direction KTS MPH feet Rate Location/Type
12:10PM 50.0400 8.5660 270° West 110 127  Level FlightAware
12:10PM 50.0370 8.5530 250° West 160 184 2,200 Level FlightAware
12:11PM 50.0330 8.5350 251° West 155 178 1,100 3,000 Climbing FlightAware
12:11PM 50.0270 8.5100 250° West 157 181 2,000 2,250 Climbing FlightAware
12:11PM 50.0240 8.5030 236° Southwest 163 188 2,300 2,000 Climbing FlightAware
12:11PM 50.0220 8.4980 238° Southwest 167 192 2,400 1,500 Climbing FlightAware
12:11PM 50.0170 8.4940 207° Southwest 172 198 2,600 1,200 Climbing FlightAware
12:11PM 50.0150 8.4940 180° South 175 201 2,600 1,000 Level FlightAware
12:12PM 50.0090 8.4910 198° South 184 212 2,800 1,500 Climbing FlightAware
12:12PM 49.9840 8.4810 194° South 226 260 3,500 1,826 Climbing FlightAware
12:12PM 49.9600 8.4700 196° South 258 297 4,200 2,500 Climbing FlightAware
12:13PM 49.9390 8.4600 197° South 278 320 5,000 3,214 Climbing FlightAware
12:13PM 49.9260 8.4520 202° Southwest 283 326 5,700 3,375 Climbing FlightAware
12:13PM 49.9220 8.4470 219° Southwest 281 323 5,900 3,750 Climbing FlightAware
12:13PM 49.9180 8.4420 219° Southwest 279 321 6,200 4,875 Climbing FlightAware
12:13PM 49.9110 8.4210 243° Southwest 270 311 7,200 4,320 Climbing FlightAware
12:13PM 49.9080 8.3970 259° West 268 308 8,000 3,405 Climbing FlightAware
12:14PM 49.9180 8.3560 291° West 265 305 9,300 3,290 Climbing FlightAware
12:14PM 49.9250 8.3480 324° Northwest 262 302 9,700 3,500 Climbing FlightAware
12:14PM 49.9290 8.3430 321° Northwest 261 300 10,000 2,700 Climbing FlightAware
12:15PM 49.9730 8.3220 343° North 281 323 11,500 2,588 Climbing FlightAware
12:15PM 49.9930 8.3130 344° North 294 338 12,200 2,280 Climbing FlightAware
12:15PM 50.0410 8.2870 341° North 327 376 13,400 1,875 Climbing FlightAware
12:16PM 50.0840 8.2970 North 343 395 14,200 1,300 Climbing FlightAware
12:16PM 50.1260 8.3340 29° Northeast 353 406 14,700 1,765 Climbing FlightAware
12:17PM 50.1790 8.3840 31° Northeast 365 420 16,200 2,500 Climbing FlightAware
12:18PM 50.2280 8.4300 31° Northeast 375 432 17,700 2,818 Climbing FlightAware
12:18PM 50.2790 8.4770 30° Northeast 380 437 19,300 2,667 Climbing FlightAware
12:19PM 50.3390 8.5320 30° Northeast 388 447 20,900 2,289 Climbing FlightAware
12:19PM 50.4010 8.5740 23° Northeast 399 459 22,200 2,118 Climbing FlightAware
12:20PM 50.4540 8.6100 23° Northeast 409 471 23,300 2,206 Climbing FlightAware
12:21PM 50.5180 8.6540 24° Northeast 412 474 24,700 2,167 Climbing FlightAware
12:21PM 50.5790 8.6950 23° Northeast 416 479 25,900 2,206 Climbing FlightAware
12:22PM 50.6390 8.7360 23° Northeast 416 479 27,200 2,559 Climbing FlightAware
12:22PM 50.7030 8.7800 24° Northeast 407 468 28,800 1,853 Climbing FlightAware
12:23PM 50.7550 8.8160 24° Northeast 404 465 29,300 943 Climbing FlightAware
12:23PM 50.8210 8.8620 24° Northeast 402 463 29,900 568 Climbing FlightAware
12:24PM 50.8810 8.9030 23° Northeast 404 465 30,000 83 Climbing FlightAware
12:25PM 50.9430 8.9460 24° Northeast 407 468 30,000  Level FlightAware
12:25PM 50.9980 8.9840 23° Northeast 406 467 30,000  Level FlightAware
12:26PM 51.0610 9.0280 24° Northeast 407 468 30,000  Level FlightAware
12:26PM 51.1180 9.0680 24° Northeast 407 468 30,000  Level FlightAware
12:27PM 51.1830 9.1140 24° Northeast 408 470 30,000  Level FlightAware
12:28PM 51.2410 9.1550 24° Northeast 409 471 30,000  Level FlightAware
12:28PM 51.3060 9.2000 23° Northeast 410 472 30,000  Level FlightAware
12:29PM 51.3660 9.2430 24° Northeast 411 473 30,000  Level FlightAware
12:29PM 51.4060 9.2710 24° Northeast 412 474 30,000  Level FlightAware
12:30PM 51.4820 9.3250 24° Northeast 413 475 30,000  Level FlightAware
12:30PM 51.5470 9.3710 24° Northeast 419 482 30,000 85 Level FlightAware
12:31PM 51.6110 9.4170 24° Northeast 423 487 30,100 -176 Climbing FlightAware
12:32PM 51.6700 9.4600 24° Northeast 421 484 29,800 -909 Descending FlightAware
12:32PM 51.7280 9.5020 24° Northeast 414 476 29,100 -1,083 Descending FlightAware
12:33PM 51.7960 9.5510 24° Northeast 412 474 28,500 -892 Descending FlightAware
12:33PM 51.8570 9.5950 24° Northeast 407 468 28,000 -435 Descending FlightAware
12:34PM 51.9150 9.6370 24° Northeast 409 471 28,000  Level FlightAware
12:35PM 51.9830 9.6740 19° North 408 470 28,000  Level FlightAware
12:35PM 52.0430 9.6930 11° North 409 471 28,000  Level FlightAware
12:36PM 52.1110 9.7150 11° North 410 472 28,000  Level FlightAware
12:36PM 52.1770 9.7360 11° North 412 474 28,000  Level FlightAware
12:37PM 52.2360 9.7550 11° North 413 475 28,000  Level FlightAware
12:37PM 52.2980 9.7750 11° North 414 476 28,000  Level FlightAware
12:38PM 52.3710 9.7990 11° North 416 479 28,000  Level FlightAware
12:39PM 52.4380 9.8200 11° North 415 478 28,000  Level FlightAware
12:39PM 52.5000 9.8400 11° North 414 476 28,000  Level FlightAware
12:40PM 52.5710 9.8630 11° North 415 478 28,000 -257 Level FlightAware
12:40PM 52.6300 9.8830 12° North 414 476 27,700 -1,108 Descending FlightAware
12:41PM 52.6920 9.9030 11° North 405 466 26,800 -1,881 Descending FlightAware
12:41PM 52.7560 9.9240 11° North 393 452 25,600 -2,027 Descending FlightAware
12:42PM 52.8240 9.9470 12° North 379 436 24,300 -2,027 Descending FlightAware
12:43PM 52.8810 9.9650 11° North 372 428 23,100 -2,149 Descending FlightAware
12:43PM 52.9360 9.9830 11° North 366 421 21,900 -2,000 Descending FlightAware
12:44PM 52.9940 10.0030 12° North 354 407 20,800 -1,970 Descending FlightAware
12:44PM 53.0450 10.0190 11° North 348 400 19,700 -2,167 Descending FlightAware
12:45PM 53.1100 10.0410 11° North 345 397 18,200 -2,419 Descending FlightAware
12:45PM 53.1430 10.0500 North 348 400 17,200 -2,875 Descending FlightAware
12:46PM 53.1840 10.0360 348° North 357 411 15,900 -2,710 Descending FlightAware
12:46PM 53.2400 10.0050 342° North 358 412 14,400 -2,531 Descending FlightAware
12:47PM 53.2890 9.9760 341° North 364 419 13,200 -2,314 Descending FlightAware
12:48PM 53.3490 9.9330 337° Northwest 350 403 11,700 -2,053 Descending FlightAware
12:48PM 53.4030 9.8950 337° Northwest 345 397 10,600 -1,200 Descending FlightAware
12:49PM 53.4500 9.8620 337° Northwest 313 360 10,300 -778 Descending FlightAware
12:49PM 53.4780 9.8450 340° North 302 348 9,900 -1,317 Descending FlightAware
12:49PM 53.5050 9.8320 344° North 288 331 9,400 -1,733 Descending FlightAware
12:50PM 53.5380 9.8160 344° North 288 331 8,600 -1,636 Descending FlightAware
12:50PM 53.5630 9.8040 344° North 284 327 8,200 -1,371 Descending FlightAware
12:50PM 53.5820 9.7940 343° North 287 330 7,800 -1,500 Descending FlightAware
12:51PM 53.6070 9.7810 343° North 286 329 7,300 -1,024 Descending FlightAware
12:51PM 53.6340 9.7680 344° North 270 311 7,100 -706 Descending FlightAware
12:51PM 53.6500 9.7600 343° North 254 292 6,900 -750 Descending FlightAware
12:52PM 53.6780 9.7450 342° North 241 277 6,600 -783 Descending FlightAware
12:52PM 53.7000 9.7340 344° North 237 273 6,300 -857 Descending FlightAware
12:53PM 53.7320 9.7160 342° North 241 277 5,900 -840 Descending FlightAware
12:53PM 53.7540 9.7040 342° North 241 277 5,600 -667 Descending FlightAware
12:53PM 53.7690 9.6960 343° North 240 276 5,500 -462 Descending FlightAware
12:54PM 53.7960 9.6820 343° North 240 276 5,300 -545 Descending FlightAware
12:54PM 53.8190 9.6700 343° North 239 275 5,100 -800 Descending FlightAware
12:54PM 53.8310 9.6670 352° North 243 280 4,900 -600 Descending FlightAware
12:54PM 53.8510 9.6810 22° Northeast 230 265 4,800 -581 Descending FlightAware
12:55PM 53.8580 9.6950 50° Northeast 222 255 4,600 -1,200 Descending FlightAware
12:55PM 53.8610 9.7030 58° Northeast 220 253 4,500 -667 Descending FlightAware
12:55PM 53.8620 9.7090 74° East 221 254 4,500  Level FlightAware
12:55PM 53.8630 9.7170 78° East 219 252 4,500 -600 Level FlightAware
12:55PM 53.8550 9.7580 108° East 220 253 4,200 -750 Descending FlightAware
12:56PM 53.8460 9.7800 125° Southeast 213 245 4,000 -1,029 Descending FlightAware
12:56PM 53.8350 9.8070 125° Southeast 216 249 3,600 -1,200 Descending FlightAware
12:56PM 53.8250 9.8240 135° Southeast 216 249 3,300 -1,000 Descending FlightAware
12:56PM 53.8120 9.8380 148° Southeast 211 243 3,100 -686 Descending FlightAware
12:57PM 53.7950 9.8530 152° Southeast 200 230 2,900 -750 Descending FlightAware
12:57PM 53.7790 9.8670 153° Southeast 181 208 2,600 -750 Descending FlightAware
12:57PM 53.7650 9.8790 153° Southeast 182 209 2,400 -857 Descending FlightAware
12:58PM 53.7550 9.8880 152° Southeast 179 206 2,100 -933 Descending FlightAware
12:58PM 53.7330 9.9070 153° Southeast 145 167 1,700 -774 Descending FlightAware
12:59PM 53.7160 9.9220 152° Southeast 131 151 1,300 -750 Descending FlightAware
12:59PM 53.7010 9.9350 153° Southeast 135 155 1,000 -789 Descending FlightAware
12:59PM 53.6940 9.9410 153° Southeast 134 154 800 -686 Descending FlightAware
01:00PM 53.6830 9.9500 154° Southeast 137 158 600 -750 Descending FlightAware
01:00PM 53.6710 9.9610 151° Southeast 136 157 300 -698 Descending FlightAware
01:00PM 53.6580 9.9720 153° Southeast 139 160 100 -500 Descending FlightAware
01:01PM 53.6470 9.9810 154° Southeast 129 148 -333 Descending FlightAware
01:01PM 53.6340 9.9930 151° Southeast 129 148  Level FlightAware
01:04PM 53.6304 9.9882 218° Southwest  Level Estimated
01:05PM 53.6304 9.9882 230° Southwest  Level Estimated
01:06PM 53.6304 9.9882 230° Southwest  Level Estimated